YO8KGT-13 Weather Reports


time (UTC)temp
C
wind
direction
speed
KPH
gust
KPH
rain 1hr
cm
rain 24hr
cm
rain mn
cm
humidity
%
barometer
mb
20260502224420 3 45 0.0 0.0 0.00 0.00 0.00 69 953.0
20260502222930 3 45 0.0 0.0 0.00 0.00 0.00 68 954.0
20260502222427 3 45 0.0 0.0 0.00 0.00 0.00 68 954.0
20260502221418 3 45 0.0 0.0 0.00 0.00 0.00 67 954.0
20260502220942 3 45 0.0 0.0 0.00 0.00 0.00 67 954.0
20260502220439 3 45 0.0 0.0 0.00 0.00 0.00 66 954.0
20260502215922 3 45 0.0 0.0 0.00 0.00 0.00 66 954.0
20260502214918 4 45 0.0 0.0 0.00 0.00 0.00 65 954.0
20260502214426 4 45 0.0 0.0 0.00 0.00 0.00 65 954.0
20260502212920 4 45 0.0 0.0 0.00 0.00 0.00 64 954.0
20260502212437 4 45 0.0 0.0 0.00 0.00 0.00 64 954.0
20260502211940 5 45 0.0 0.0 0.00 0.00 0.00 64 954.0
20260502211419 5 45 0.0 0.0 0.00 0.00 0.00 64 954.0
20260502210923 5 45 0.0 0.0 0.00 0.00 0.00 64 954.0
20260502205926 5 45 0.0 0.0 0.00 0.00 0.00 63 954.0
20260502205434 5 45 0.0 0.0 0.00 0.00 0.00 63 954.0
20260502204424 5 45 0.0 0.0 0.00 0.00 0.00 62 954.0
20260502203939 5 45 0.0 0.0 0.00 0.00 0.00 62 954.0
20260502203443 5 45 0.0 0.0 0.00 0.00 0.00 61 954.0
20260502202919 6 45 0.0 0.0 0.00 0.00 0.00 61 954.0
20260502202419 6 45 0.0 0.0 0.00 0.00 0.00 61 954.0
20260502201918 6 45 0.0 0.0 0.00 0.00 0.00 61 954.0
20260502201426 6 45 0.0 0.0 0.00 0.00 0.00 60 954.0
20260502200928 6 45 0.0 0.0 0.00 0.00 0.00 60 954.0
20260502200423 6 45 0.0 0.0 0.00 0.00 0.00 60 954.0
20260502195918 6 45 0.0 0.0 0.00 0.00 0.00 60 954.0
20260502195437 6 45 0.0 0.0 0.00 0.00 0.00 60 954.0
20260502194941 6 45 0.0 0.0 0.00 0.00 0.00 59 954.0
20260502193920 6 45 0.0 0.0 0.00 0.00 0.00 59 954.0
20260502193417 6 45 0.0 0.0 0.00 0.00 0.00 58 954.0
20260502192928 6 45 0.0 0.0 0.00 0.00 0.00 58 954.0
20260502192423 6 45 0.0 0.0 0.00 0.00 0.00 57 954.0
20260502191919 7 45 0.0 0.0 0.00 0.00 0.00 57 954.0
20260502190936 7 45 0.0 0.0 0.00 0.00 0.00 56 954.0
20260502190435 7 45 0.0 0.0 0.00 0.00 0.00 56 954.0
20260502185919 7 45 0.0 0.0 0.00 0.00 0.00 55 954.0
20260502185418 7 45 0.0 0.0 0.00 0.00 0.00 55 954.0
20260502184918 7 45 0.0 0.0 0.00 0.00 0.00 55 954.0
20260502184426 7 45 0.0 0.0 0.00 0.00 0.00 55 954.0
20260502183924 7 45 0.0 0.0 0.00 0.00 0.00 55 953.0
20260502183418 8 45 0.0 0.0 0.00 0.00 0.00 54 953.0
20260502182918 7 45 0.0 0.0 0.00 0.00 0.00 54 953.0
20260502181935 7 45 0.0 0.0 0.00 0.00 0.00 53 953.0
20260502181419 8 45 0.0 0.0 0.00 0.00 0.00 53 953.0
20260502180919 8 45 0.0 0.0 0.00 0.00 0.00 53 953.0
20260502180418 8 45 0.0 0.0 0.00 0.00 0.00 52 953.0
20260502170421 10 45 0.0 0.0 0.00 0.00 0.00 49 953.0
20260502163418 11 45 0.0 6.4 0.00 0.00 0.00 47 953.0
20260502162920 11 45 0.0 3.2 0.00 0.00 0.00 47 953.0
20260502161918 12 45 0.0 4.8 0.00 0.00 0.00 46 953.0
20260502160933 12 45 0.0 9.7 0.00 0.00 0.00 45 953.0
20260502160435 12 45 8.0 9.7 0.00 0.00 0.00 44 953.0
20260502151932 13 45 4.8 14.5 0.00 0.00 0.00 43 953.0
20260502151419 13 45 6.4 14.5 0.00 0.00 0.00 43 953.0
20260502150918 14 45 0.0 8.0 0.00 0.00 0.00 43 953.0
20260502150418 14 45 3.2 8.0 0.00 0.00 0.00 43 953.0
20260502130427 16 45 4.8 9.7 0.00 0.00 0.00 41 954.0
20260502123421 15 22 4.8 9.7 0.00 0.00 0.00 42 954.0
20260502122920 15 45 6.4 9.7 0.00 0.00 0.00 43 954.0
20260502121931 15 45 6.4 24.1 0.00 0.00 0.00 43 954.0
20260502120924 15 45 24.1 24.1 0.00 0.00 0.00 41 954.0
20260502115920 15 45 4.8 9.7 0.00 0.00 0.00 42 954.0
20260502115417 16 45 3.2 9.7 0.00 0.00 0.00 43 954.0
20260502114919 15 45 3.2 11.3 0.00 0.00 0.00 43 954.0
20260502114418 14 45 0.0 12.9 0.00 0.00 0.00 44 954.0
20260502113928 13 45 11.3 12.9 0.00 0.00 0.00 45 954.0
20260502113429 13 45 4.8 12.9 0.00 0.00 0.00 45 954.0
20260502112919 13 45 6.4 17.7 0.00 0.00 0.00 44 954.0
20260502111418 14 45 16.1 16.1 0.00 0.00 0.00 44 954.0
20260502110918 15 45 11.3 14.5 0.00 0.00 0.00 44 954.0
20260502110420 15 45 11.3 14.5 0.00 0.00 0.00 44 954.0
20260502105430 14 45 6.4 11.3 0.00 0.00 0.00 46 954.0
20260502104419 14 45 8.0 12.9 0.00 0.00 0.00 47 954.0
20260502102418 14 45 11.3 11.3 0.00 0.00 0.00 49 954.0
20260502101918 14 22 6.4 6.4 0.00 0.00 0.00 49 954.0
20260502101417 14 45 4.8 6.4 0.00 0.00 0.00 50 954.0
20260502100431 13 45 3.2 9.7 0.00 0.00 0.00 52 954.0
20260502090922 13 45 0.0 8.0 0.00 0.00 0.00 55 955.0
20260502090417 13 45 0.0 11.3 0.00 0.00 0.00 55 955.0
20260502070931 12 22 0.0 6.4 0.00 0.00 0.00 65 955.0
20260502070431 12 22 6.4 6.4 0.00 0.00 0.00 66 955.0
20260502065917 11 22 4.8 6.4 0.00 0.00 0.00 67 955.0
20260502064920 10 22 0.0 3.2 0.00 0.00 0.00 71 955.0
20260502063919 10 45 0.0 1.6 0.00 0.00 0.00 74 955.0
20260502063417 8 45 0.0 1.6 0.00 0.00 0.00 75 955.0
20260502062918 8 45 0.0 0.0 0.00 0.00 0.00 75 955.0
20260502061931 7 45 0.0 3.2 0.00 0.00 0.00 76 955.0
20260502061418 7 45 0.0 3.2 0.00 0.00 0.00 76 955.0
20260502060917 7 45 0.0 3.2 0.00 0.00 0.00 76 955.0
20260502060422 7 45 0.0 4.8 0.00 0.00 0.00 75 955.0
20260502055919 7 45 0.0 4.8 0.00 0.00 0.00 75 955.0
20260502055424 7 45 4.8 4.8 0.00 0.00 0.00 75 955.0
20260502054417 7 45 0.0 0.0 0.00 0.00 0.00 76 955.0
20260502052918 6 45 0.0 0.0 0.00 0.00 0.00 76 955.0
20260502051917 6 45 0.0 3.2 0.00 0.00 0.00 76 955.0
20260502051418 6 45 0.0 3.2 0.00 0.00 0.00 76 955.0
20260502050922 6 45 0.0 3.2 0.00 0.00 0.00 76 955.0
20260502050418 6 45 0.0 0.0 0.00 0.00 0.00 76 955.0
20260502043918 6 45 0.0 0.0 0.00 0.00 0.00 76 955.0
20260502042921 6 45 0.0 0.0 0.00 0.00 0.00 76 954.0
20260502042422 6 45 0.0 0.0 0.00 0.00 0.00 76 954.0
20260502041921 6 45 0.0 0.0 0.00 0.00 0.00 76 954.0
20260502040937 6 45 0.0 3.2 0.00 0.00 0.00 76 954.0
20260502040437 6 45 0.0 3.2 0.00 0.00 0.00 76 954.0
20260502035917 6 45 0.0 0.0 0.00 0.00 0.00 76 954.0
20260502034917 6 45 0.0 3.2 0.00 0.00 0.00 76 954.0
20260502034422 6 45 0.0 3.2 0.00 0.00 0.00 76 954.0
20260502033926 6 45 0.0 3.2 0.00 0.00 0.00 76 954.0
20260502033417 6 45 0.0 3.2 0.00 0.00 0.00 76 954.0
20260502031937 6 45 0.0 0.0 0.00 0.00 0.00 76 954.0
20260502031421 6 45 0.0 1.6 0.00 0.00 0.00 76 954.0
20260502030918 6 45 0.0 3.2 0.00 0.00 0.00 76 954.0
20260502025923 6 45 3.2 4.8 0.00 0.00 0.00 76 954.0
20260502025421 6 45 0.0 4.8 0.00 0.00 0.00 76 954.0
20260502024923 6 45 1.6 3.2 0.00 0.00 0.00 76 954.0
20260502024416 6 45 0.0 0.0 0.00 0.00 0.00 76 954.0
20260502023937 6 45 0.0 0.0 0.00 0.00 0.00 76 954.0
20260502023434 6 45 0.0 4.8 0.00 0.00 0.00 76 954.0
20260502022916 6 45 0.0 4.8 0.00 0.00 0.00 76 954.0
20260502022417 6 45 4.8 4.8 0.00 0.00 0.00 76 954.0
20260502021919 6 45 0.0 0.0 0.00 0.00 0.00 76 954.0
20260502021423 6 45 0.0 0.0 0.00 0.00 0.00 76 954.0
20260502020925 6 45 0.0 0.0 0.00 0.00 0.00 76 954.0
20260502020418 6 45 0.0 0.0 0.00 0.00 0.00 76 954.0
20260502015437 6 45 0.0 0.0 0.00 0.00 0.00 76 954.0
20260502014935 6 45 0.0 0.0 0.00 0.00 0.00 76 954.0
20260502013919 6 45 0.0 0.0 0.00 0.00 0.00 76 954.0
20260502013419 6 45 0.0 0.0 0.00 0.00 0.00 76 954.0
20260502012928 6 45 0.0 0.0 0.00 0.00 0.00 76 954.0
20260502011918 6 45 0.0 0.0 0.00 0.00 0.00 76 954.0
20260502011419 6 45 0.0 0.0 0.00 0.00 0.00 76 954.0
20260502010938 6 45 0.0 0.0 0.00 0.00 0.00 76 954.0
20260502005919 6 45 0.0 0.0 0.00 0.00 0.00 76 954.0
20260502004919 5 45 0.0 0.0 0.00 0.00 0.00 76 954.0
20260502003928 5 45 0.0 0.0 0.00 0.00 0.00 76 954.0
20260502003422 5 45 0.0 0.0 0.00 0.00 0.00 76 954.0
20260502002919 6 45 0.0 0.0 0.00 0.00 0.00 75 954.0
20260502002434 6 45 0.0 0.0 0.00 0.00 0.00 75 954.0
20260502001938 6 45 0.0 0.0 0.00 0.00 0.00 75 954.0
20260502001420 6 45 0.0 0.0 0.00 0.00 0.00 74 954.0
20260502000918 6 45 0.0 0.0 0.00 0.00 0.00 74 954.0
20260502000418 6 45 0.0 0.0 0.00 0.00 0.00 73 954.0
20260501235923 6 45 0.0 0.0 0.00 0.00 0.00 73 954.0
20260501235424 6 45 0.0 0.0 0.00 0.00 0.00 73 954.0
20260501234924 6 45 0.0 0.0 0.00 0.00 0.00 72 954.0
20260501233436 6 45 0.0 0.0 0.00 0.00 0.00 72 954.0
20260501232923 6 45 0.0 3.2 0.00 0.00 0.00 72 954.0
20260501232420 6 45 0.0 3.2 0.00 0.00 0.00 72 954.0
20260501231919 6 45 3.2 3.2 0.00 0.00 0.00 71 954.0
20260501230924 7 45 0.0 0.0 0.00 0.00 0.00 71 954.0
20260501230419 7 45 0.0 0.0 0.00 0.00 0.00 71 954.0
20260501225919 7 45 0.0 0.0 0.00 0.00 0.00 71 954.0
20260501225435 7 45 0.0 0.0 0.00 0.00 0.00 71 954.0